{"data":{"norad_id":58977,"intl_designator":"2024-031N","name":"STARLINK-31358","alt_names":[],"object_type":"PAYLOAD","status":"ACTIVE","operator":null,"country":"US","launch_date":"2024-02-15","launch_site_code":"AFWTR","launch_vehicle":null,"mission":null,"orbit_class":"UNKNOWN","rcs_meters":null,"size_class":null,"mass_kg":null,"dimensions":null,"purposes":["comms"],"wikipedia_slug":null,"has_3d_model":false,"image_url":null,"decayed_at":null,"tle_current":{"epoch":"2026-05-25T03:35:32.784864Z","epoch_age_seconds":62118,"freshness":"FRESH","line1":"1 58977U 24031N   26145.14968501 -.00000420  00000+0 -20822-5 0  9994","line2":"2 58977  53.1609 301.2415 0000706  73.3004 286.8074 15.30192743128223","mean_motion":15.30192743,"eccentricity":7.06e-5,"inclination_deg":53.1609,"raan_deg":301.2415,"arg_perigee_deg":73.3004,"mean_anomaly_deg":286.8074,"bstar":-2.0822e-6,"rev_number":12822,"period_min":94.105792004792,"perigee_km":474.752889413,"apogee_km":475.72058578475,"semimajor_km":6853.3737375989,"source":"CELESTRAK","updated_at":"2026-05-25T13:38:18.795663Z"}}}